• In Uzbekistan
  • List of Countries
  • For 7 days
  • Water Temperature
  • Weather Map
  • Weather Widgets
  • user-avatar
    Login

    Hourly Weather Sydney

    Today, 19 February, Wednesday

    Time Temperature Precipitation Wind Pressure Humidity
    00:00 +27°C° 0.1 mm 4 mps 750 mmHg 75%
    01:00 +26°C° 0.1 mm 4 mps 750 mmHg 79%
    02:00 +25°C° 0.1 mm 4 mps 750 mmHg 71%
    03:00 +23°C° 0.1 mm 4 mps 750 mmHg 63%
    04:00 +23°C° 0 mm 4 mps 750 mmHg 55%
    05:00 +22°C° 0 mm 4 mps 751 mmHg 53%
    06:00 +22°C° 0 mm 4 mps 752 mmHg 51%
    07:00 +22°C° 0 mm 4 mps 752 mmHg 49%
    08:00 +25°C° 0 mm 4 mps 752 mmHg 44%
    09:00 +26°C° 0 mm 4 mps 752 mmHg 39%
    10:00 +28°C° 0 mm 4 mps 752 mmHg 34%
    11:00 +29°C° 0 mm 4 mps 752 mmHg 32%
    12:00 +30°C° 0 mm 4 mps 752 mmHg 29%
    13:00 +32°C° 0 mm 4 mps 752 mmHg 27%
    14:00 +32°C° 0 mm 4 mps 751 mmHg 28%
    15:00 +32°C° 0 mm 5 mps 751 mmHg 30%
    16:00 +30°C° 0 mm 5 mps 751 mmHg 31%
    17:00 +29°C° 0 mm 5 mps 752 mmHg 35%
    18:00 +27°C° 0 mm 5 mps 753 mmHg 39%
    19:00 +25°C° 0 mm 4 mps 754 mmHg 43%
    20:00 +23°C° 0 mm 4 mps 754 mmHg 53%
    21:00 +22°C° 0 mm 4 mps 754 mmHg 63%
    22:00 +21°C° 0 mm 4 mps 754 mmHg 72%
    23:00 +20°C° 0 mm 3 mps 754 mmHg 73%

    Tomorrow, 20 February, Thursday

    Time Temperature Precipitation Wind Pressure Humidity
    00:00 +20°C° 0 mm 3 mps 754 mmHg 74%
    01:00 +20°C° 0 mm 2 mps 754 mmHg 74%
    02:00 +19°C° 0 mm 2 mps 754 mmHg 73%
    03:00 +19°C° 0 mm 2 mps 755 mmHg 71%
    04:00 +19°C° 0 mm 1 mps 755 mmHg 70%
    05:00 +20°C° 0 mm 1 mps 755 mmHg 67%
    06:00 +20°C° 0 mm 1 mps 756 mmHg 64%
    07:00 +19°C° 0 mm 2 mps 756 mmHg 61%
    08:00 +23°C° 0.1 mm 2 mps 757 mmHg 55%
    09:00 +25°C° 0.1 mm 2 mps 757 mmHg 50%
    10:00 +27°C° 0.1 mm 3 mps 757 mmHg 44%
    11:00 +27°C° 0 mm 3 mps 757 mmHg 45%
    12:00 +27°C° 0 mm 4 mps 757 mmHg 45%
    13:00 +27°C° 0 mm 5 mps 757 mmHg 46%
    14:00 +27°C° 0 mm 5 mps 756 mmHg 47%
    15:00 +26°C° 0 mm 4 mps 756 mmHg 49%
    16:00 +25°C° 0 mm 4 mps 756 mmHg 50%
    17:00 +23°C° 0 mm 4 mps 757 mmHg 55%
    18:00 +22°C° 0 mm 4 mps 758 mmHg 60%
    19:00 +20°C° 0 mm 3 mps 758 mmHg 65%
    20:00 +21°C° 0 mm 3 mps 759 mmHg 66%
    21:00 +21°C° 0 mm 3 mps 759 mmHg 66%
    22:00 +21°C° 0 mm 3 mps 760 mmHg 67%
    23:00 +21°C° 0 mm 2 mps 760 mmHg 68%

    Day after tomorrow, 21 February, Friday

    Time Temperature Precipitation Wind Pressure Humidity
    00:00 +21°C° 0 mm 2 mps 760 mmHg 69%
    01:00 +21°C° 0 mm 2 mps 759 mmHg 69%
    02:00 +20°C° 0 mm 2 mps 759 mmHg 71%
    03:00 +21°C° 0 mm 1 mps 759 mmHg 73%
    04:00 +21°C° 0 mm 1 mps 759 mmHg 75%
    05:00 +21°C° 0.1 mm 1 mps 760 mmHg 75%
    06:00 +21°C° 0.1 mm 1 mps 760 mmHg 76%
    07:00 +21°C° 0.1 mm 1 mps 761 mmHg 76%
    08:00 +23°C° 0.1 mm 1 mps 761 mmHg 71%
    09:00 +24°C° 0.1 mm 2 mps 761 mmHg 66%
    10:00 +25°C° 0.1 mm 2 mps 761 mmHg 61%
    11:00 +25°C° 0.1 mm 2 mps 761 mmHg 60%
    12:00 +26°C° 0.1 mm 3 mps 761 mmHg 59%
    13:00 +26°C° 0.1 mm 3 mps 761 mmHg 58%
    14:00 +26°C° 0 mm 3 mps 760 mmHg 58%
    15:00 +26°C° 0 mm 4 mps 760 mmHg 58%
    16:00 +26°C° 0 mm 4 mps 760 mmHg 58%
    23:00 +21°C° 0.7 mm 5 mps 763 mmHg 84%

    22 February, Saturday

    Time Temperature Precipitation Wind Pressure Humidity
    00:00 +20°C° 0.6 mm 4 mps 764 mmHg 82%
    01:00 +20°C° 0.6 mm 3 mps 764 mmHg 82%
    02:00 +20°C° 0.3 mm 3 mps 764 mmHg 82%
    03:00 +20°C° 0.3 mm 3 mps 764 mmHg 83%
    04:00 +20°C° 0.3 mm 3 mps 764 mmHg 83%
    05:00 +20°C° 0.5 mm 3 mps 765 mmHg 82%
    06:00 +21°C° 0.5 mm 3 mps 765 mmHg 82%
    07:00 +21°C° 0.5 mm 3 mps 765 mmHg 82%
    08:00 +21°C° 0.7 mm 3 mps 766 mmHg 80%
    09:00 +22°C° 0.7 mm 4 mps 766 mmHg 79%
    10:00 +22°C° 0.7 mm 4 mps 766 mmHg 77%
    11:00 +23°C° 0.6 mm 5 mps 766 mmHg 75%
    12:00 +25°C° 0.6 mm 5 mps 766 mmHg 72%
    13:00 +24°C° 0.6 mm 6 mps 766 mmHg 70%
    14:00 +24°C° 0.4 mm 6 mps 765 mmHg 71%
    15:00 +24°C° 0.4 mm 6 mps 765 mmHg 72%
    16:00 +23°C° 0.4 mm 6 mps 765 mmHg 72%
    17:00 +23°C° 0.2 mm 6 mps 765 mmHg 75%
    18:00 +22°C° 0.2 mm 6 mps 766 mmHg 78%
    19:00 +21°C° 0.2 mm 5 mps 766 mmHg 81%
    20:00 +21°C° 0.2 mm 5 mps 767 mmHg 81%
    21:00 +21°C° 0.2 mm 5 mps 767 mmHg 81%
    22:00 +21°C° 0.2 mm 5 mps 768 mmHg 81%
    23:00 +21°C° 0 mm 5 mps 767 mmHg 82%

    23 February, Sunday

    Time Temperature Precipitation Wind Pressure Humidity
    00:00 +20°C° 0 mm 4 mps 767 mmHg 84%
    01:00 +20°C° 0 mm 4 mps 767 mmHg 86%
    02:00 +20°C° 0 mm 3 mps 767 mmHg 86%
    03:00 +20°C° 0 mm 3 mps 766 mmHg 86%
    04:00 +20°C° 0 mm 3 mps 766 mmHg 87%
    05:00 +20°C° 0.1 mm 3 mps 767 mmHg 85%
    06:00 +21°C° 0.1 mm 3 mps 767 mmHg 84%
    07:00 +21°C° 0.1 mm 3 mps 768 mmHg 82%
    08:00 +22°C° 0.1 mm 3 mps 768 mmHg 78%
    09:00 +24°C° 0.1 mm 3 mps 768 mmHg 74%
    10:00 +25°C° 0.1 mm 4 mps 768 mmHg 70%
    11:00 +26°C° 0 mm 4 mps 768 mmHg 64%
    12:00 +27°C° 0 mm 5 mps 767 mmHg 59%
    13:00 +28°C° 0 mm 5 mps 767 mmHg 53%
    14:00 +28°C° 0 mm 5 mps 766 mmHg 55%
    15:00 +27°C° 0 mm 6 mps 766 mmHg 56%
    16:00 +27°C° 0 mm 6 mps 765 mmHg 57%
    17:00 +26°C° 0 mm 5 mps 765 mmHg 62%
    18:00 +23°C° 0 mm 5 mps 765 mmHg 68%
    19:00 +22°C° 0 mm 5 mps 765 mmHg 73%
    20:00 +22°C° 0 mm 4 mps 766 mmHg 75%
    21:00 +21°C° 0 mm 4 mps 766 mmHg 77%
    22:00 +21°C° 0 mm 4 mps 767 mmHg 79%
    23:00 +20°C° 0 mm 3 mps 766 mmHg 81%

    24 February, Monday

    Time Temperature Precipitation Wind Pressure Humidity
    00:00 +20°C° 0 mm 3 mps 766 mmHg 82%
    01:00 +20°C° 0 mm 3 mps 765 mmHg 84%
    02:00 +19°C° 0 mm 2 mps 765 mmHg 84%
    03:00 +19°C° 0 mm 2 mps 765 mmHg 85%
    04:00 +19°C° 0 mm 2 mps 765 mmHg 85%
    05:00 +19°C° 0 mm 2 mps 765 mmHg 83%
    06:00 +20°C° 0 mm 2 mps 765 mmHg 80%
    07:00 +20°C° 0 mm 2 mps 765 mmHg 77%
    08:00 +23°C° 0 mm 2 mps 765 mmHg 68%
    09:00 +26°C° 0 mm 2 mps 765 mmHg 59%
    10:00 +28°C° 0 mm 2 mps 765 mmHg 50%
    11:00 +29°C° 0 mm 2 mps 764 mmHg 46%
    12:00 +31°C° 0 mm 3 mps 764 mmHg 43%
    13:00 +33°C° 0 mm 4 mps 763 mmHg 39%
    14:00 +33°C° 0 mm 4 mps 763 mmHg 42%
    15:00 +32°C° 0 mm 5 mps 762 mmHg 45%
    16:00 +30°C° 0 mm 5 mps 762 mmHg 48%
    17:00 +28°C° 0 mm 5 mps 762 mmHg 55%
    18:00 +26°C° 0 mm 5 mps 762 mmHg 62%
    19:00 +25°C° 0 mm 5 mps 762 mmHg 69%
    20:00 +23°C° 0 mm 4 mps 762 mmHg 73%
    21:00 +22°C° 0 mm 4 mps 762 mmHg 77%
    22:00 +22°C° 0 mm 4 mps 763 mmHg 81%
    23:00 +21°C° 0 mm 4 mps 762 mmHg 82%
    Show more